Location: Emory University Observatory
(33.7903°N, 84.3267°W)
Time: 05:22:54
(UTC-04:00)

N. Korean satellite - Pass Details

Date: 08 October 2017
Orbit: 459 x 517 km, 97.2° (Epoch: 17 October)

Event Time Altitude Azimuth Distance (km) Brightness Sun altitude
Rises 20:07:19 0° 182° (S) 2,583 10.3 -12.3°
Reaches altitude 10° 20:09:30 10° 190° (S) 1,694 9.4 -12.8°
Maximum altitude 20:12:57 41° 261° (W) 730 8.1 -13.5°
Drops below altitude 10° 20:16:22 10° 333° (NNW) 1,674 9.7 -14.2°
Sets 20:18:30 0° 341° (NNW) 2,548 10.5 -14.7°
